"Pseudo-MPEC" for C06LT32

Created 2019 Feb 13 5:18:27 UT using Find_Orb

Click here for an explanation of pseudo-MPECs

 
 Astrometry: 
     C06LT32  C2019 02 045Qy=ha_a;#hO'J[-hv9#RKjlub?8WjLlAc/gAstrometryJ(YmX`F52
     C06LT32  C2019 02 04bAf,h;naT%QZqM`5\(7a0qTBWK5%0XtLT:XBV)d+5DVb_kxg)9QTF52
     C06LT32  C2019 02 04\v?.*Z@L6F/+xxb`]-9$6RVD*0LGU/wt='T8SD^=xD;w,V4mI9^UF52
     C06LT32  C2019 02 09.46688 11 20 43.94 +12 34 42.5    ~29GI 22.1 GVNEOCPG96
     C06LT32  C2019 02 09.47249 11 20 44.18 +12 34 43.9    ~29GI 22.4 GVNEOCPG96
     C06LT32  C2019 02 09.47811 11 20 44.36 +12 34 44.6    ~29GI 22.5 GVNEOCPG96
     C06LT32  C2019 02 09.48372 11 20 44.65 +12 34 47.6    ~29GI 21.8 GVNEOCPG96
     C06LT32  C2019 02 09mkxBbYvgu9*s]yJC/_62RNhGWwTo3.redacted;=$,_A@5A-047*V06
     C06LT32  C2019 02 09_fE3TFD,:?/1xop?5+:BO3$TIXHbDmOS:N9nh2#S0sIOb.D+JsJMV06
     C06LT32  C2019 02 09-Nv`BJS78e:kvgn%PI5'vS+$*dT8E!Etw_pG8-9$^TCRYs.]b5YpV06
     C06LT32 |C2019 02 11_G83DQ)kclickjk^HmBjN[\rL,vGCv`iiy6[242Ya=$._x3J4CPt807
     C06LT32 |C2019 02 119kRt#f`sF=ZcAh#HAj]:,ZD'Tuy$g`=Xlk[YQ/Yniv62y8SD068K807
     C06LT32 |C2019 02 11y7FW)kmBu7EL'W%sdI)UbEEC_WshW0hhnY5d!7`l7fMHkF3;OB#u807
     C06LT32  C2019 02 11OjV=Y$Pnh+`(RQnhere%y:LfU!.2P0hHqGnFl$=%\GsJS3-+U0o\V06
     C06LT32  C2019 02 11W$k)9OrqGwSnJW!8d,V@qN5-g:E4*4E/%NirXaiY8BMbS)518`_MV06
     C06LT32  C2019 02 11'`5`h$X?GYWCa?wjtoY+-@D4hqV'e\/KqI:O(nn)NKM5D$Ys8#2:V06
     C06LT32  C2019 02 11kdWnX`vLTTY-C$ev^;'2(O]dACU+U#=oDJZx)AforBa,x^D98bAnV06
     C06LT32  C2019 02 12/vJyA3Se]3A.:(:8@^,X'Lu*I`qhoGl3F3!S^gKYve6W\Oc;ODg$V06
     C06LT32  C2019 02 12FKG8#GE;4pOd5kUmM*0h3U0l]!1]Zy]+!*wX+CNtm#^)n9PAw:d1V06
     C06LT32  C2019 02 12D/3'nifk!K4OE\R*eFw;BuU,,%Zcf/Q0k2a1Wc]F8((kfGkd3_KsV06
     C06LT32  C2019 02 12941rs)explanationX\@$tI`?i-1SIxltrk%%SuvF0XN1Q1i3RGaV06

Station data:
(807) Cerro Tololo Observatory, La Serena  (S30.169136 W70.805900)  Chile.
   1.5-m Ritchey-Chrétien.
(F52) Pan-STARRS 2, Haleakala  (N20.707384 W156.255910)  US/Hawaii.
(G96) Mt. Lemmon Survey  (N32.442754 W110.788720)  US/Arizona.  Observers B.
   M. Africano, E. J. Christensen, G. A. Farneth, D. C. Fuls, A. R. Gibbs, A.
   D. Grauer, H. Groeller, J. A. Johnson, R. A. Kowalski, S. M. Larson, G. J.
   Leonard, R. L. Seaman, F. C. Shelly. 1.5-m reflector + 10K CCD.
(V06) Catalina Sky Survey-Kuiper  (N32.416847 W110.732550)  US/Arizona.
   Observers B. M. Africano, E. J. Christensen, G. A. Farneth, D. C. Fuls, A.
   R. Gibbs, A. D. Grauer, H. Groeller, J. A. Johnson, R. A. Kowalski, S. M.
   Larson, G. J. Leonard, R. L. Seaman, F. C. Shelly. 1.55-m reflector + CCD.

Orbital elements:  C06LT32
   Perihelion 2019 Apr 30.269988 +/- 0.0358 TT =  6:28:47 (JD 2458603.769988)
Epoch 2019 Feb 12.0 TT = JDT 2458526.5   Earth MOID: 0.0250   Ve: 0.0531
M 338.61589082 +/- 0.20             Ma: 0.0088                AutoNEOCP
n   0.27674533 +/- 0.00257          Peri.  210.44443 +/- 0.29
a   2.33211075 +/- 0.0145           Node    33.28809 +/- 0.23
e   0.6693609 +/- 0.00194           Incl.    2.60926 +/- 0.0027
P   3.56                   H 22.3   G  0.15   U  8.7  
q 0.77108693 +/- 0.000789    Q 3.89313456 +/- 0.0292
From 21 observations 2019 Feb. 4-12; mean residual 0".28
Residuals in arcseconds: 
190204 F52  .16-  .07-    190209 V06  .05+  .10-    190211 V06  .17-  .04-    
190204 F52  .08+  .13+    190209 V06  .20+  .31+    190211 V06  .09+  .21-    
190204 F52  .06+  .03-    190209 V06  .27-  .11+    190211 V06  .08+  .03+    
190209 G96  .62-  .12+    190211 807  .01-  .15-    190212 V06  .25-  .13+    
190209 G96  .02-  .01-    190211 807  .03-  .15-    190212 V06  .12+  .11+    
190209 G96  .30-  .85-    190211 807  .06+  .10-    190212 V06  .02-  .11+    
190209 G96  1.0+  .62+    190211 V06  .01+  .02+    190212 V06  .07+  .14+    

Ephemerides (geocentric):
Date (UTC) HH   RA              Dec         delta   r     elong  mag " sig PA
---- -- -- --  -------------   -----------  ------ ------ -----  --- ---- ---
2019 02 13 05  11 23 20.619   +12 55 21.66  .38101 1.3444 156.1 21.8 .318 154
2019 02 13 06  11 23 22.353   +12 55 37.37  .38050 1.3440 156.1 21.8 .327 154
2019 02 13 07  11 23 24.087   +12 55 53.12  .37998 1.3436 156.1 21.8 .335 154
2019 02 13 08  11 23 25.820   +12 56 08.93  .37946 1.3431 156.2 21.8 .344 155
2019 02 13 09  11 23 27.554   +12 56 24.78  .37894 1.3427 156.2 21.8 .353 155
2019 02 13 10  11 23 29.288   +12 56 40.67  .37843 1.3423 156.2 21.8 .362 155
2019 02 13 11  11 23 31.022   +12 56 56.62  .37791 1.3419 156.3 21.7 .371 155
2019 02 13 12  11 23 32.756   +12 57 12.61  .37739 1.3415 156.3 21.7 .380 155
2019 02 13 13  11 23 34.491   +12 57 28.65  .37688 1.3410 156.3 21.7 .389 155
2019 02 13 14  11 23 36.225   +12 57 44.74  .37636 1.3406 156.4 21.7 .399 155
2019 02 13 15  11 23 37.960   +12 58 00.87  .37585 1.3402 156.4 21.7 .408 155
2019 02 13 16  11 23 39.695   +12 58 17.05  .37533 1.3398 156.4 21.7 .417 155
2019 02 13 17  11 23 41.430   +12 58 33.29  .37482 1.3394 156.5 21.7 .427 155
2019 02 13 18  11 23 43.165   +12 58 49.56  .37430 1.3389 156.5 21.7 .437 155
2019 02 13 19  11 23 44.900   +12 59 05.89  .37379 1.3385 156.5 21.7 .447 156
2019 02 13 20  11 23 46.636   +12 59 22.26  .37327 1.3381 156.6 21.7 .456 156
2019 02 13 21  11 23 48.372   +12 59 38.69  .37276 1.3377 156.6 21.7 .466 156
2019 02 13 22  11 23 50.108   +12 59 55.16  .37224 1.3372 156.6 21.7 .476 156
2019 02 13 23  11 23 51.845   +13 00 11.68  .37173 1.3368 156.7 21.7 .487 156
2019 02 14 00  11 23 53.581   +13 00 28.25  .37121 1.3364 156.7 21.7 .497 156
2019 02 14 01  11 23 55.318   +13 00 44.86  .37070 1.3360 156.7 21.7 .507 156
2019 02 14 02  11 23 57.055   +13 01 01.53  .37019 1.3356 156.8 21.7 .518 156
2019 02 14 03  11 23 58.792   +13 01 18.24  .36967 1.3351 156.8 21.7 .528 156
2019 02 14 04  11 24 00.530   +13 01 35.01  .36916 1.3347 156.8 21.7 .539 156
2019 02 14 05  11 24 02.268   +13 01 51.82  .36865 1.3343 156.8 21.7 .549 157
2019 02 14 06  11 24 04.006   +13 02 08.68  .36814 1.3339 156.9 21.7 .560 157
2019 02 14 07  11 24 05.745   +13 02 25.59  .36762 1.3334 156.9 21.7 .571 157
2019 02 14 08  11 24 07.484   +13 02 42.56  .36711 1.3330 156.9 21.7 .582 157
2019 02 14 09  11 24 09.223   +13 02 59.57  .36660 1.3326 157.0 21.7 .593 157
2019 02 14 10  11 24 10.962   +13 03 16.63  .36609 1.3322 157.0 21.7 .605 157
2019 02 14 11  11 24 12.702   +13 03 33.74  .36558 1.3317 157.0 21.6 .616 157
2019 02 14 12  11 24 14.442   +13 03 50.90  .36506 1.3313 157.1 21.6 .627 157
2019 02 14 13  11 24 16.183   +13 04 08.11  .36455 1.3309 157.1 21.6 .639 157
2019 02 14 14  11 24 17.924   +13 04 25.37  .36404 1.3305 157.1 21.6 .651 157
2019 02 14 15  11 24 19.665   +13 04 42.69  .36353 1.3301 157.2 21.6 .662 158
2019 02 14 16  11 24 21.407   +13 05 00.05  .36302 1.3296 157.2 21.6 .674 158
2019 02 14 17  11 24 23.149   +13 05 17.46  .36251 1.3292 157.2 21.6 .686 158
2019 02 14 18  11 24 24.892   +13 05 34.92  .36200 1.3288 157.3 21.6 .698 158
2019 02 14 19  11 24 26.634   +13 05 52.44  .36149 1.3284 157.3 21.6 .711 158
2019 02 14 20  11 24 28.378   +13 06 10.01  .36098 1.3279 157.3 21.6 .723 158
2019 02 14 21  11 24 30.121   +13 06 27.62  .36047 1.3275 157.4 21.6 .735 158
2019 02 14 22  11 24 31.866   +13 06 45.29  .35996 1.3271 157.4 21.6 .748 158
2019 02 14 23  11 24 33.610   +13 07 03.01  .35945 1.3267 157.4 21.6 .760 158
2019 02 15 00  11 24 35.355   +13 07 20.78  .35895 1.3263 157.5 21.6 .773 158
2019 02 15 01  11 24 37.101   +13 07 38.61  .35844 1.3258 157.5 21.6 .786 159
2019 02 15 02  11 24 38.847   +13 07 56.48  .35793 1.3254 157.5 21.6 .799 159
2019 02 15 03  11 24 40.594   +13 08 14.41  .35742 1.3250 157.6 21.6 .812 159
2019 02 15 04  11 24 42.341   +13 08 32.39  .35691 1.3246 157.6 21.6 .825 159